Location: Old Broadwell Mill Observatory
(33.8015°N, 85.8137°W)
Time: 07:32:57
(UTC-05:00)

Amateur Radio Satellites - All Passes

Search period start: 30 May 2016 07:02
Search period end: 31 May 2016 07:02
Location: Old Broadwell Mill Observatory, 33.8015°N, 85.8137°W

Satellite Date Start Highest point End Downlink Frequencies (MHz)
Time Altitude Azimuth
Cubesat XI-IV 30 May 07:03:36 07:08:59 82° 103° (ESE) 07:14:21 437.490
AO-85 30 May 07:04:09 07:06:26 13° 315° (NW) 07:08:43 145.980
DOVE 4 30 May 07:18:44 07:22:18 26° 96° (E) 07:25:46 437.250
NOAA 18 30 May 07:25:04 07:30:24 53° 288° (WNW) 07:35:43 137.9125
AIST 1 30 May 07:31:07 07:34:39 24° 77° (ENE) 07:38:09
Cosmos 2499 30 May 07:33:48 07:35:19 10° 64° (ENE) 07:36:49 435.465 / 435.565
GONETS M04 30 May 07:37:11 07:43:32 22° 70° (ENE) 07:49:50
HO-68 30 May 07:41:32 07:46:46 21° 95° (E) 07:52:00 435.675
CUTE-I 30 May 07:49:23 07:54:14 36° 290° (WNW) 07:59:05 437.470
PRISM 30 May 07:54:52 07:58:37 35° 73° (ENE) 08:02:26 437.425
LilacSat-2 30 May 08:01:58 08:04:06 15° 291° (WNW) 08:06:16 437.200
AUBIESAT-1 30 May 08:04:34 08:06:14 13° 100° (E) 08:07:55 437.475
SEEDS 30 May 08:11:29 08:14:37 20° 95° (E) 08:17:44 437.485
M-CUBED/EXP-1 PRIME 30 May 08:12:58 08:15:36 22° 102° (ESE) 08:18:14 437.505
BRITE-PL 30 May 08:13:29 08:16:06 15° 295° (WNW) 08:18:37 437.365/2234.400
CANX-2 30 May 08:13:59 08:17:55 35° 98° (E) 08:21:51 2200.000
GOMX 1 30 May 08:22:23 08:25:53 22° 291° (WNW) 08:29:14 467.674
STRAND 1 30 May 08:25:00 08:28:29 18° 266° (W) 08:31:58 437.568
SO-50 30 May 08:29:36 08:33:53 35° 55° (NE) 08:38:02 436.795
JUGNU 30 May 08:31:41 08:35:29 17° 190° (S) 08:39:17 437.505
O/OREOS (USA 219) 30 May 08:35:07 08:39:33 52° 106° (ESE) 08:43:59 437.305
CUTE 1.7 + AOD 2 30 May 08:40:24 08:44:40 66° 101° (E) 08:48:56 437.475
SRMSAT 30 May 08:41:41 08:46:01 21° 178° (S) 08:50:20 437.500
Cubesat XI-IV 30 May 08:47:01 08:48:17 11° 298° (WNW) 08:49:34 437.490
AAUSAT CUBESAT 2 30 May 08:51:13 08:55:01 32° 97° (E) 08:58:47 437.432
COMPASS 1 30 May 08:51:26 08:55:27 42° 99° (E) 08:59:27 437.405
DOVE 4 30 May 08:56:45 08:59:50 20° 291° (WNW) 09:02:50 437.250
PCSat 30 May 08:56:53 09:02:17 81° 114° (ESE) 09:07:43 145.827
Oscar 11 30 May 08:57:37 09:00:00 14° 93° (E) 09:02:21 145.826/435.025
CINEMA 3 30 May 09:04:52 09:08:56 57° 285° (WNW) 09:13:01 145.822/145.860
AIST 1 30 May 09:08:51 09:12:04 21° 272° (W) 09:15:15
ZACube-1 30 May 09:16:41 09:19:58 21° 96° (E) 09:23:16 437.345
Cosmos 2499 30 May 09:21:13 09:29:56 68° 82° (E) 09:38:44 435.465 / 435.565
HO-68 30 May 09:27:47 09:34:48 60° 289° (WNW) 09:41:49 435.675
PRISM 30 May 09:31:42 09:34:01 15° 266° (W) 09:36:20 437.425
GONETS M04 30 May 09:32:22 09:40:58 68° 268° (W) 09:49:32
CUBEBUG 2 30 May 09:34:21 09:38:33 86° 100° (E) 09:42:50 437.445
AUBIESAT-1 30 May 09:38:03 09:40:44 23° 292° (WNW) 09:43:27 437.475
SEEDS 30 May 09:46:40 09:50:16 27° 288° (WNW) 09:53:51 437.485
UNISAT 6 30 May 09:47:33 09:51:24 31° 72° (ENE) 09:55:12 437.425
M-CUBED/EXP-1 PRIME 30 May 09:48:15 09:49:59 14° 295° (WNW) 09:51:44 437.505
CANX-2 30 May 09:50:49 09:53:27 16° 291° (WNW) 09:56:06 2200.000
BEESAT 2 30 May 09:51:04 09:52:49 13° 108° (ESE) 09:54:34 435.950
FUNcube-1 30 May 09:52:23 09:56:32 56° 100° (E) 10:00:46 145.935
TIGRISAT 30 May 09:53:57 09:57:54 35° 73° (ENE) 10:01:47 435.000
UWE-3 30 May 09:56:39 10:00:52 76° 283° (WNW) 10:05:09 435.000/436.395/437.385
SO-50 30 May 10:10:44 10:14:04 20° 251° (WSW) 10:17:18 436.795
CUSAT 1 30 May 10:14:10 10:18:47 21° 82° (E) 10:23:58 437.405
O/OREOS (USA 219) 30 May 10:17:07 10:19:15 13° 301° (WNW) 10:21:22 437.305
BEESAT 3 30 May 10:17:35 10:21:24 53° 116° (ESE) 10:25:15 437.485
AAUSAT CUBESAT 2 30 May 10:27:32 10:30:12 17° 291° (WNW) 10:32:52 437.432
ANTELSAT 30 May 10:28:04 10:32:26 83° 258° (WSW) 10:36:45 437.575/2403.000
COMPASS 1 30 May 10:28:36 10:30:36 13° 292° (WNW) 10:32:36 437.405
SRMSAT 30 May 10:30:37 10:34:32 18° 189° (S) 10:38:26 437.500
DELFI C3 30 May 10:31:26 10:35:30 86° 283° (WNW) 10:39:31 145.870
Oscar 11 30 May 10:32:12 10:36:13 39° 287° (WNW) 10:40:16 145.826/435.025
POPSAT HIP 1 30 May 10:32:34 10:35:14 16° 68° (ENE) 10:37:54 437.405
QB50P1 30 May 10:32:38 10:35:20 17° 69° (ENE) 10:38:02 145.935-145.965
HUMSAT D 30 May 10:34:14 10:38:10 39° 99° (E) 10:42:08 437.325/437.525
QB50P2 30 May 10:35:39 10:38:41 19° 69° (ENE) 10:41:43 145.880/145.840
POLYITAN 1 30 May 10:38:06 10:41:10 20° 70° (ENE) 10:44:14 437.675
DANDE 30 May 10:38:27 10:40:25 12° 77° (ENE) 10:42:30 436.750
PCSat 30 May 10:43:42 10:46:18 13° 311° (NW) 10:48:55 145.827
NANOSAT C BR1 30 May 10:48:30 10:51:54 24° 71° (ENE) 10:55:19 145.865
ZACube-1 30 May 10:52:42 10:56:10 25° 288° (WNW) 10:59:40 437.345
ESTCUBE 1 30 May 11:04:18 11:06:49 15° 93° (E) 11:09:20 437.505/2401.250
VELOX 1 30 May 11:14:32 11:15:54 11° 93° (E) 11:17:15 145.980
Cosmos 2499 30 May 11:15:55 11:22:15 23° 277° (W) 11:28:39 435.465 / 435.565
DUCHIFAT 1 30 May 11:24:43 11:28:53 65° 75° (ENE) 11:33:03 145.980
UNISAT 6 30 May 11:25:12 11:28:07 18° 265° (W) 11:31:01 437.425
BEESAT 2 30 May 11:26:31 11:30:15 40° 302° (WNW) 11:34:02 435.950
BUGSAT 1 30 May 11:30:32 11:34:16 32° 73° (ENE) 11:38:00 437.445
FUNcube-1 30 May 11:31:48 11:32:17 10° 294° (WNW) 11:32:46 145.935
TIGRISAT 30 May 11:32:01 11:34:39 16° 266° (W) 11:37:15 435.000
UKube-1 30 May 11:41:01 11:43:35 15° 94° (E) 11:46:08 .
AISAT 30 May 11:48:45 11:52:42 32° 98° (E) 11:56:37 437.250
CUSAT 1 30 May 11:53:43 11:59:57 61° 282° (WNW) 12:07:35 437.405
BEESAT 3 30 May 11:57:54 11:59:24 12° 311° (NW) 12:00:53 437.485
50 SAT 30 May 11:58:03 12:01:39 45° 100° (E) 12:05:14 437.505
POPSAT HIP 1 30 May 12:06:54 12:10:43 33° 262° (W) 12:14:34 437.405
QB50P1 30 May 12:07:00 12:10:49 32° 262° (W) 12:14:38 145.935-145.965
QB50P2 30 May 12:10:37 12:14:17 28° 263° (W) 12:17:56 145.880/145.840
HUMSAT D 30 May 12:11:17 12:13:26 14° 292° (WNW) 12:15:35 437.325/437.525
POLYITAN 1 30 May 12:13:09 12:16:46 27° 263° (W) 12:20:23 437.675
DANDE 30 May 12:16:17 12:21:41 82° 279° (W) 12:28:54 436.750
JAS-2 30 May 12:19:20 12:26:23 51° 70° (ENE) 12:33:54 435.910
AIST 2 30 May 12:23:39 12:27:29 39° 114° (ESE) 12:31:20 435.215
NANOSAT C BR1 30 May 12:24:16 12:27:32 22° 264° (W) 12:30:49 145.865
DX 1 30 May 12:32:04 12:36:26 84° 106° (ESE) 12:40:45 434.975-435.025
CUBEBUG 1 30 May 12:32:59 12:37:21 73° 283° (WNW) 12:41:38 437.445
ESTCUBE 1 30 May 12:39:30 12:43:46 41° 287° (WNW) 12:48:01 437.505/2401.250
SPROUT 30 May 12:45:44 12:49:55 55° 100° (E) 12:54:04 437.525
VELOX 1 30 May 12:48:19 12:52:36 50° 286° (WNW) 12:56:50 145.980
TISAT 1 30 May 12:59:18 13:02:14 18° 95° (E) 13:05:08 437.305
Oscar 19 30 May 13:00:45 13:05:43 47° 73° (ENE) 13:10:42 437.125/150
BUGSAT 1 30 May 13:07:03 13:09:40 16° 265° (W) 13:12:17 437.445
UKube-1 30 May 13:15:46 13:19:42 35° 288° (WNW) 13:23:38 .
AISAT 30 May 13:25:52 13:28:54 18° 292° (WNW) 13:31:55 437.250
Gurwin Techsat 1B 30 May 13:48:28 13:53:38 57° 74° (ENE) 13:58:51 435.225
ITAMSAT 1 30 May 13:50:32 13:54:22 22° 67° (ENE) 13:58:14 435.822/435.867
AO-85 30 May 13:56:39 14:00:35 28° 53° (NE) 14:04:12 145.980
AIST 2 30 May 14:03:30 14:06:06 16° 309° (NW) 14:08:44 435.215
BEESAT 30 May 14:03:39 14:06:56 18° 95° (E) 14:10:13 436.000
DANDE 30 May 14:04:38 14:06:08 11° 301° (WNW) 14:07:43 436.750
JAS-2 30 May 14:05:25 14:11:33 29° 267° (W) 14:18:04 435.910
SPROUT 30 May 14:24:43 14:25:20 10° 294° (WNW) 14:25:57 437.525
AO-7 30 May 14:28:28 14:35:28 32° 62° (ENE) 14:42:28 29.400- 29.500
TISAT 1 30 May 14:34:19 14:37:51 27° 289° (WNW) 14:41:23 437.305
Oscar 19 30 May 14:41:57 14:45:13 17° 266° (W) 14:48:30 437.125/150
YUBILEINY 30 May 14:43:19 14:49:43 24° 83° (E) 14:56:07 435.215
Cosmos 2491 30 May 14:47:20 14:55:54 55° 80° (E) 15:04:21 435.465 / 435.565
RS-15 30 May 14:56:11 15:03:18 19° 99° (E) 15:10:36 29.354- 29.394
SWISSCUBE 30 May 15:10:45 15:15:33 71° 284° (WNW) 15:20:18 437.505
ITUPSAT 1 30 May 15:18:42 15:23:28 66° 286° (WNW) 15:28:14 437.325
ITAMSAT 1 30 May 15:28:47 15:33:33 38° 261° (W) 15:38:21 435.822/435.867
Gurwin Techsat 1B 30 May 15:31:08 15:33:53 14° 267° (W) 15:36:39 435.225
AO-85 30 May 15:37:24 15:40:50 22° 251° (WSW) 15:44:03 145.980
BEESAT 30 May 15:40:24 15:44:48 37° 288° (WNW) 15:49:11 436.000
KKS-1 30 May 15:43:52 15:47:29 24° 97° (E) 15:51:04 437.445
Cosmos 2504 30 May 15:44:00 15:44:29 10° 77° (ENE) 15:44:59 435.465 / 435.565
HORYU 2 30 May 16:04:33 16:08:14 27° 70° (ENE) 16:11:56 437.375
STARS 30 May 16:10:43 16:14:15 24° 97° (E) 16:17:47 437.465
AO-7 30 May 16:19:49 16:27:48 52° 258° (WSW) 16:35:52 29.400- 29.500
MOZHAYETS 4 30 May 16:22:10 16:26:42 54° 100° (E) 16:31:14
YUBILEINY 30 May 16:37:12 16:45:44 61° 279° (W) 16:54:21 435.215
Cosmos 2491 30 May 16:45:15 16:52:05 27° 276° (W) 16:58:55 435.465 / 435.565
RS-15 30 May 17:02:44 17:13:59 88° 298° (WNW) 17:25:56 29.354- 29.394
NOAA 18 30 May 17:08:28 17:12:36 23° 66° (ENE) 17:16:44 137.9125
KKS-1 30 May 17:20:23 17:23:55 24° 290° (WNW) 17:27:27 437.445
CUTE-I 30 May 17:28:04 17:32:26 27° 68° (ENE) 17:36:49 437.470
Cosmos 2504 30 May 17:29:14 17:36:26 85° 96° (E) 17:44:03 435.465 / 435.565
BRITE-PL 30 May 17:38:50 17:44:05 41° 72° (ENE) 17:49:22 437.365/2234.400
HORYU 2 30 May 17:41:18 17:44:43 22° 264° (W) 17:48:08 437.375
STARS 30 May 17:47:00 17:50:29 24° 290° (WNW) 17:53:57 437.465
GOMX 1 30 May 17:47:38 17:51:52 23° 69° (ENE) 17:56:01 467.674
PCSat 30 May 17:49:10 17:53:49 28° 56° (NE) 17:58:26 145.827
CUBESAT XI-V 30 May 17:56:29 18:01:09 61° 100° (E) 18:05:45 437.345
MOZHAYETS 4 30 May 18:01:21 18:03:22 13° 294° (WNW) 18:05:23
NOAA 15 30 May 18:04:41 18:09:59 87° 254° (WSW) 18:15:20 137.62
HO-68 30 May 18:10:43 18:12:02 11° 55° (NE) 18:13:20 435.675
DOVE 4 30 May 18:19:55 18:23:51 22° 70° (ENE) 18:27:40 437.250
Cubesat XI-IV 30 May 18:21:40 18:26:59 89° 247° (WSW) 18:32:19 437.490
ISS 30 May 18:34:42 18:35:57 12° 126° (SE) 18:37:13 145.825
LilacSat-2 30 May 18:38:30 18:42:11 50° 260° (W) 18:45:53 437.200
BEESAT 3 30 May 18:40:52 18:41:41 10° 48° (NE) 18:42:31 437.485
AUBIESAT-1 30 May 18:47:50 18:49:26 12° 64° (ENE) 18:51:00 437.475
NOAA 18 30 May 18:47:52 18:52:57 40° 261° (W) 18:58:03 137.9125
O/OREOS (USA 219) 30 May 18:49:01 18:53:22 51° 68° (ENE) 18:57:42 437.305
M-CUBED/EXP-1 PRIME 30 May 18:56:05 18:59:05 20° 67° (ENE) 19:01:56 437.505
STRAND 1 30 May 18:59:37 19:03:18 20° 95° (E) 19:06:59 437.568
CANX-2 30 May 19:04:10 19:06:41 16° 68° (ENE) 19:09:13 2200.000
CUTE-I 30 May 19:07:40 19:12:19 31° 263° (W) 19:17:01 437.470
BRITE-PL 30 May 19:18:08 19:22:35 24° 266° (W) 19:27:04 437.365/2234.400
RS-15 30 May 19:19:15 19:28:19 26° 322° (NW) 19:37:48 29.354- 29.394
GOMX 1 30 May 19:24:32 19:29:38 39° 262° (W) 19:34:40 467.674
PHONESAT 2.4 30 May 19:26:00 19:28:37 25° 146° (SE) 19:31:15 2401.200-2431.200
Cosmos 2504 30 May 19:27:32 19:30:51 13° 294° (WNW) 19:34:15 435.465 / 435.565
CUTE 1.7 + AOD 2 30 May 19:29:34 19:33:07 27° 72° (ENE) 19:36:41 437.475
PCSat 30 May 19:32:22 19:37:10 33° 252° (WSW) 19:41:56 145.827
CUBESAT XI-V 30 May 19:36:25 19:37:56 11° 295° (WNW) 19:39:27 437.345
AAUSAT CUBESAT 2 30 May 19:39:15 19:41:17 13° 68° (ENE) 19:43:19 437.432
COMPASS 1 30 May 19:39:23 19:42:07 17° 69° (ENE) 19:44:52 437.405
BEESAT 2 30 May 19:48:08 19:51:43 31° 56° (NE) 19:55:16 435.950
HO-68 30 May 19:51:23 19:58:27 70° 72° (ENE) 20:05:34 435.675
DOVE 4 30 May 19:56:28 20:01:16 37° 262° (W) 20:05:56 437.250
AIST 1 30 May 19:56:52 19:59:49 18° 88° (E) 20:02:47
CINEMA 3 30 May 20:01:51 20:06:35 78° 78° (ENE) 20:11:07 145.822/145.860
ISS 30 May 20:08:54 20:12:03 47° 319° (NW) 20:15:13 145.825
ZACube-1 30 May 20:11:20 20:12:11 11° 67° (ENE) 20:13:03 437.345
BEESAT 3 30 May 20:15:51 20:19:46 61° 244° (WSW) 20:23:37 437.485
AUBIESAT-1 30 May 20:19:42 20:23:38 42° 255° (WSW) 20:27:19 437.475
CUBEBUG 2 30 May 20:28:34 20:32:41 42° 74° (ENE) 20:36:43 437.445
M-CUBED/EXP-1 PRIME 30 May 20:29:57 20:33:28 26° 257° (WSW) 20:36:49 437.505
O/OREOS (USA 219) 30 May 20:31:03 20:32:13 11° 262° (W) 20:33:24 437.305
GONETS M04 30 May 20:33:18 20:40:28 29° 85° (E) 20:47:35
SEEDS 30 May 20:33:38 20:37:45 66° 259° (W) 20:41:56 437.485
STRAND 1 30 May 20:37:46 20:42:34 40° 288° (WNW) 20:47:20 437.568
CANX-2 30 May 20:38:24 20:42:13 34° 262° (W) 20:46:04 2200.000
FUNcube-1 30 May 20:44:36 20:48:05 26° 72° (ENE) 20:51:32 145.935
UWE-3 30 May 20:49:41 20:53:50 51° 75° (ENE) 20:57:55 435.000/436.395/437.385
CUSAT 1 30 May 20:55:27 20:57:59 12° 60° (ENE) 21:00:22 437.405
PHONESAT 2.4 30 May 21:02:10 21:05:14 50° 340° (NNW) 21:08:18 2401.200-2431.200
CUTE 1.7 + AOD 2 30 May 21:05:54 21:08:54 19° 265° (W) 21:11:57 437.475
AAUSAT CUBESAT 2 30 May 21:12:32 21:16:23 39° 262° (W) 21:20:17 437.432
DELFI C3 30 May 21:13:46 21:17:13 30° 72° (ENE) 21:20:42 145.870
COMPASS 1 30 May 21:13:48 21:17:26 30° 263° (W) 21:21:06 437.405
PRISM 30 May 21:15:00 21:19:11 80° 284° (WNW) 21:23:18 437.425
DANDE 30 May 21:20:48 21:23:35 12° 60° (ENE) 21:26:15 436.750
Oscar 11 30 May 21:22:25 21:26:42 86° 256° (WSW) 21:31:01 145.826/435.025
HUMSAT D 30 May 21:22:54 21:25:29 17° 69° (ENE) 21:28:05 437.325/437.525
BEESAT 2 30 May 21:26:43 21:29:17 17° 250° (WSW) 21:31:51 435.950
AIST 1 30 May 21:33:18 21:37:09 29° 282° (WNW) 21:41:00
HO-68 30 May 21:42:10 21:46:39 17° 267° (W) 21:51:08 435.675
RS-15 30 May 21:43:33 21:47:26 12° 359° (N) 21:51:22 29.354- 29.394
ZACube-1 30 May 21:43:54 21:48:00 51° 260° (W) 21:52:05 437.345
Cosmos 2499 30 May 21:53:22 22:00:23 57° 91° (E) 22:07:54 435.465 / 435.565
CUBEBUG 2 30 May 22:07:31 22:09:26 13° 267° (W) 22:11:20 437.445
FUNcube-1 30 May 22:21:10 22:24:16 20° 264° (W) 22:27:20 145.935
ANTELSAT 30 May 22:23:51 22:27:31 26° 97° (E) 22:31:14 437.575/2403.000
AIST 2 30 May 22:26:32 22:30:40 76° 244° (WSW) 22:34:48 435.215
GONETS M04 30 May 22:28:16 22:36:45 52° 281° (W) 22:45:15
UWE-3 30 May 22:30:16 22:30:30 10° 268° (W) 22:30:46 435.000/436.395/437.385
CUSAT 1 30 May 22:34:13 22:41:33 84° 81° (E) 22:47:17 437.405
50 SAT 30 May 22:34:33 22:35:56 12° 68° (ENE) 22:37:20 437.505
PHONESAT 2.4 30 May 22:39:46 22:42:21 23° 356° (N) 22:44:57 2401.200-2431.200
SO-50 30 May 22:39:51 22:44:04 29° 111° (ESE) 22:48:17 436.795
AISAT 30 May 22:43:00 22:46:07 19° 68° (ENE) 22:49:14 437.250
DELFI C3 30 May 22:49:44 22:52:06 15° 266° (W) 22:54:29 145.870
HUMSAT D 30 May 22:57:17 23:00:52 30° 263° (W) 23:04:27 437.325/437.525
DANDE 30 May 22:59:47 23:08:05 70° 80° (E) 23:15:01 436.750
DUCHIFAT 1 30 May 23:14:25 23:16:29 13° 94° (E) 23:18:34 145.980
UNISAT 6 30 May 23:18:49 23:23:07 65° 284° (WNW) 23:27:31 437.425
DX 1 30 May 23:23:34 23:27:42 43° 73° (ENE) 23:31:51 434.975-435.025
CUBEBUG 1 30 May 23:24:39 23:28:59 55° 74° (ENE) 23:33:20 437.445
TIGRISAT 30 May 23:25:09 23:29:24 58° 285° (WNW) 23:33:44 435.000
ESTCUBE 1 30 May 23:34:31 23:39:02 75° 259° (W) 23:43:34 437.505/2401.250
SPROUT 30 May 23:35:49 23:39:22 26° 71° (ENE) 23:42:54 437.525
VELOX 1 30 May 23:41:10 23:45:38 85° 76° (ENE) 23:50:07 145.980
Cosmos 2499 30 May 23:48:35 23:53:59 22° 290° (WNW) 23:59:41 435.465 / 435.565
POPSAT HIP 1 30 May 23:55:06 23:59:11 49° 100° (E) 00:03:15 437.405
QB50P1 30 May 23:55:08 23:59:13 50° 100° (E) 00:03:18 145.935-145.965
RS-15 30 May 23:57:43 00:06:58 24° 35° (NE) 00:16:12 29.354- 29.394
QB50P2 30 May 23:58:42 00:02:52 60° 100° (E) 00:07:01 145.880/145.840
ANTELSAT 31 May 00:00:45 00:04:04 22° 290° (WNW) 00:07:26 437.575/2403.000
POLYITAN 1 31 May 00:01:11 00:05:20 61° 101° (E) 00:09:30 437.675
UKube-1 31 May 00:05:43 00:10:02 73° 257° (WSW) 00:14:23 .
50 SAT 31 May 00:06:02 00:09:19 33° 262° (W) 00:12:38 437.505
NANOSAT C BR1 31 May 00:11:22 00:15:33 78° 100° (E) 00:19:44 145.865
PHONESAT 2.4 31 May 00:16:46 00:19:36 31° 13° (NNE) 00:22:27 2401.200-2431.200
AISAT 31 May 00:18:19 00:22:19 33° 262° (W) 00:26:22 437.250
CUSAT 1 31 May 00:19:41 00:22:09 12° 282° (WNW) 00:24:28 437.405
SO-50 31 May 00:20:14 00:24:29 29° 307° (NW) 00:28:43 436.795
DANDE 31 May 00:44:23 00:49:52 20° 279° (W) 00:54:50 436.750
DUCHIFAT 1 31 May 00:48:26 00:52:18 37° 287° (WNW) 00:56:09 145.980
BUGSAT 1 31 May 00:50:57 00:54:59 83° 283° (WNW) 00:58:59 437.445
DX 1 31 May 01:01:55 01:04:03 13° 266° (W) 01:06:10 434.975-435.025
CUBEBUG 1 31 May 01:04:48 01:05:32 10° 268° (W) 01:06:15 437.445
BEESAT 31 May 01:07:19 01:09:48 14° 66° (ENE) 01:12:17 436.000
SPROUT 31 May 01:11:57 01:15:14 21° 264° (W) 01:18:31 437.525
Oscar 19 31 May 01:16:57 01:20:58 23° 95° (E) 01:24:56 437.125/150
JAS-2 31 May 01:19:07 01:26:12 61° 100° (E) 01:32:24 435.910
TISAT 1 31 May 01:21:11 01:25:22 65° 258° (WSW) 01:29:34 437.305
POPSAT HIP 1 31 May 01:33:13 01:34:30 11° 294° (WNW) 01:35:47 437.405
QB50P1 31 May 01:33:21 01:34:31 11° 294° (WNW) 01:35:41 145.935-145.965
PHONESAT 2.4 31 May 01:53:23 01:56:28 59° 208° (SSW) 01:59:32 2401.200-2431.200
Gurwin Techsat 1B 31 May 02:09:00 02:13:40 31° 97° (E) 02:18:20 435.225
RS-15 31 May 02:09:26 02:21:51 77° 60° (ENE) 02:34:05 29.354- 29.394
SWISSCUBE 31 May 02:13:04 02:17:48 85° 76° (ENE) 02:22:35 437.505
ITUPSAT 1 31 May 02:21:17 02:26:02 89° 269° (W) 02:30:50 437.325
KKS-1 31 May 02:39:14 02:41:45 15° 67° (ENE) 02:44:16 437.445
ISS 31 May 02:39:45 02:42:39 28° 37° (NE) 02:45:31 145.825
BEESAT 31 May 02:42:31 02:47:07 50° 260° (W) 02:51:45 436.000
YUBILEINY 31 May 02:52:01 03:00:38 57° 80° (E) 03:09:13 435.215
Oscar 19 31 May 02:55:40 03:00:17 34° 290° (WNW) 03:04:52 437.125/150
STARS 31 May 03:04:51 03:07:09 14° 67° (ENE) 03:09:26 437.465
JAS-2 31 May 03:05:22 03:10:26 21° 299° (WNW) 03:15:09 435.910
MOZHAYETS 4 31 May 03:20:23 03:24:24 32° 72° (ENE) 03:28:25
Cosmos 2504 31 May 03:26:03 03:33:03 27° 73° (ENE) 03:40:10 435.465 / 435.565
Cosmos 2491 31 May 03:42:54 03:51:40 73° 93° (E) 04:00:27 435.465 / 435.565
ITAMSAT 1 31 May 03:45:01 03:50:16 79° 285° (WNW) 03:55:29 435.822/435.867
Gurwin Techsat 1B 31 May 03:49:03 03:53:28 27° 291° (WNW) 03:57:52 435.225
AO-85 31 May 04:06:06 04:10:40 28° 110° (ESE) 04:15:12 145.980
KKS-1 31 May 04:13:42 04:17:56 42° 261° (W) 04:22:10 437.445
ISS 31 May 04:16:27 04:18:57 20° 231° (SW) 04:21:25 145.825
RS-15 31 May 04:23:46 04:33:04 26° 258° (WSW) 04:42:19 29.354- 29.394
AO-7 31 May 04:25:21 04:33:44 71° 105° (ESE) 04:42:04 29.400- 29.500
STARS 31 May 04:38:54 04:43:06 43° 261° (W) 04:47:18 437.465
JUGNU 31 May 04:39:52 04:43:39 17° 170° (S) 04:47:26 437.505
YUBILEINY 31 May 04:49:57 04:56:46 26° 276° (W) 05:03:38 435.215
CUBESAT XI-V 31 May 04:55:50 05:00:08 37° 73° (ENE) 05:04:28 437.345
MOZHAYETS 4 31 May 04:58:18 05:01:34 19° 265° (W) 05:04:51
Cosmos 2504 31 May 05:18:21 05:26:45 59° 269° (W) 05:35:25 435.465 / 435.565
HORYU 2 31 May 05:34:47 05:39:14 87° 283° (WNW) 05:43:41 437.375
NOAA 18 31 May 05:35:42 05:37:48 12° 93° (E) 05:39:54 137.9125
Cosmos 2491 31 May 05:43:05 05:49:14 21° 291° (WNW) 05:55:26 435.465 / 435.565
AO-85 31 May 05:46:01 05:51:01 36° 305° (NW) 05:55:58 145.980
BRITE-PL 31 May 05:49:56 05:52:40 15° 91° (E) 05:55:15 437.365/2234.400
CUTE-I 31 May 05:50:01 05:52:51 14° 93° (E) 05:55:40 437.470
STRAND 1 31 May 06:12:05 06:15:40 20° 67° (ENE) 06:19:15 437.568
LilacSat-2 31 May 06:16:14 06:19:08 21° 96° (E) 06:22:02 437.200
AO-7 31 May 06:19:33 06:25:42 23° 302° (WNW) 06:31:52 29.400- 29.500
NOAA 15 31 May 06:24:00 06:29:07 49° 100° (E) 06:34:11 137.62
JUGNU 31 May 06:27:39 06:32:00 21° 181° (S) 06:36:22 437.505
CUBESAT XI-V 31 May 06:34:31 06:37:35 17° 266° (W) 06:40:41 437.345
SRMSAT 31 May 06:40:53 06:44:33 17° 170° (S) 06:48:12 437.500
Cubesat XI-IV 31 May 06:42:57 06:48:11 51° 100° (E) 06:53:22 437.490
